Nausori, Fiji

2:12 AM +13 on November 23, 2017 (GMT +1300)
Nausori International

Weather History for NFNA - January, 2003

Change the Weather History Date:

Saturday, January 4, 2003

  Actual Average Record
Temperature  
Mean Temperature 80 °F -  
Max Temperature 89 °F 87 °F - ()
Min Temperature 71 °F 75 °F - ()
Cooling Degree Days 15    
Growing Degree Days 30 (Base 50)    
Moisture  
Dew Point 71 °F    
Average Humidity 81    
Maximum Humidity 100    
Minimum Humidity 46    
Precipitation  
Precipitation 0.00 in 0.41 in - ()
Sea Level Pressure  
Sea Level Pressure 29.71 in    
Wind  
Wind Speed 2 mph ()    
Max Wind Speed 12 mph    
Max Gust Speed -    
Visibility 3.3 miles    
Events Fog    
T = Trace of Precipitation, MM = Missing Value Source: Averaged Metar Reports

Daily Weather History Graph

Daily Weather History Graph

Search for Another Location

Airport or City:

Trip Planner

Search our weather history database for the weather conditions in past years. The results will help you decide how hot, cold, wet, or windy it might be!

Date:

Astronomy

Jan. 04, 2003 Rise Set
Actual Time 5:34 AM +12 6:45 PM +12
Civil Twilight 5:10 AM +12 7:09 PM +12
Nautical Twilight 4:42 AM +12 7:38 PM +12
Astronomical Twilight 4:12 AM +12 8:07 PM +12
Moon 6:29 AM +12 (1/4) 8:06 PM +12 (1/4)
Length of Visible Light 13h 58m
Length of Day
13h 10m
New Moon, 2% of the Moon is Illuminated
Jan 4
New Moon
Jan 11
First Quarter
Jan 18
Full
Jan 25
Last Quarter
Feb 1
New

Hourly Weather History & Observations

Time (+12) Temp. Heat Index Dew Point Humidity Pressure Visibility Wind Dir Wind Speed Gust Speed Precip Events Conditions
12:00 AM 73.4 °F - 71.6 °F 94% 29.74 in 24.9 mi Calm Calm - N/A   Partly Cloudy
1:00 AM 73.4 °F - 71.6 °F 94% 29.71 in 24.9 mi Calm Calm - N/A   Partly Cloudy
2:00 AM 73.4 °F - 73.4 °F 100% 29.68 in 24.9 mi Calm Calm - N/A   Partly Cloudy
3:00 AM 71.6 °F - 69.8 °F 94% 29.68 in 24.9 mi Calm Calm - N/A   Partly Cloudy
4:00 AM 71.6 °F - 71.6 °F 100% 29.68 in 24.9 mi Calm Calm - N/A   Partly Cloudy
5:00 AM 71.6 °F - 71.6 °F 100% 29.71 in 24.9 mi Calm Calm - N/A   Partly Cloudy
5:15 AM 71.6 °F - 71.6 °F 100% 29.71 in 0.5 mi Calm Calm - N/A Fog Fog
5:30 AM 71.6 °F - 71.6 °F 100% 29.71 in 0.2 mi Calm Calm - N/A Fog Fog
6:00 AM 71.6 °F - 71.6 °F 100% 29.74 in 0.2 mi Calm Calm - N/A Fog Fog
7:00 AM 71.6 °F - 71.6 °F 100% 29.74 in 12.4 mi WNW 8.1 mph - N/A   Partly Cloudy
8:00 AM 75.2 °F - 73.4 °F 94% 29.74 in 31.1 mi NNW 5.8 mph - N/A   Partly Cloudy
9:00 AM 78.8 °F - 73.4 °F 83% 29.71 in 31.1 mi WNW 5.8 mph - N/A   Partly Cloudy
10:00 AM 84.2 °F 90.9 °F 73.4 °F 70% 29.71 in 31.1 mi WNW 5.8 mph - N/A   Partly Cloudy
11:00 AM 86.0 °F 93.4 °F 73.4 °F 66% 29.71 in 31.1 mi North 6.9 mph - N/A   Partly Cloudy
12:00 PM 87.8 °F 91.4 °F 68.0 °F 52% 29.68 in 31.1 mi East 3.5 mph - N/A   Scattered Clouds
1:00 PM 89.6 °F 93.4 °F 68.0 °F 49% 29.68 in 31.1 mi NE 9.2 mph - N/A   Scattered Clouds
2:00 PM 89.6 °F 93.4 °F 68.0 °F 49% 29.68 in 31.1 mi ENE 11.5 mph - N/A   Scattered Clouds
3:00 PM 89.6 °F 92.2 °F 66.2 °F 46% 29.65 in 31.1 mi NNE 9.2 mph - N/A   Scattered Clouds
4:00 PM 87.8 °F 90.4 °F 66.2 °F 49% 29.65 in 31.1 mi Calm Calm - N/A   Scattered Clouds
5:00 PM 84.2 °F 90.9 °F 73.4 °F 70% 29.68 in 31.1 mi South 5.8 mph - N/A   Scattered Clouds
6:00 PM 82.4 °F 87.2 °F 71.6 °F 70% 29.68 in 31.1 mi SSE 3.5 mph - N/A   Scattered Clouds
7:00 PM 80.6 °F 85.4 °F 73.4 °F 79% 29.71 in 31.1 mi South 2.3 mph - N/A   Scattered Clouds
8:00 PM 78.8 °F - 73.4 °F 83% 29.74 in 31.1 mi Calm Calm - N/A   Partly Cloudy
9:00 PM 78.8 °F - 73.4 °F 83% 29.74 in 31.1 mi Calm Calm - N/A   Scattered Clouds
10:00 PM 78.8 °F - 73.4 °F 83% 29.77 in 31.1 mi Calm Calm - N/A   Partly Cloudy
11:00 PM 75.2 °F - 73.4 °F 94% 29.77 in 31.1 mi Calm Calm - N/A   Partly Cloudy